This demonstration page uses our WeatherBlox Daily Observations layout. Learn more.

Left ArrowRight Arrow

38.88101, -77.10428

Hourly Observations for December 6, 2015

Temp ( °F °C ) Dew Point ( °F °C ) Humidity (%) Winds ( mph kmh ) Pressure ( in mb ) Visibility ( mi km ) Precip ( " mm )
12:52 am 00:52 Clear 38 3.3 35 1.7 89 89 N N/A 30.63 1037 7 11 N/A
1:52 am 01:52 Mostly Clear 38 3.3 35 1.7 89 89 N N/A 30.62 1037 8 13 N/A
2:52 am 02:52 Clear 36 2.2 34 1.1 93 93 N N/A 30.61 1037 8 13 N/A
3:52 am 03:52 Mostly Clear 36 2.2 33 0.6 89 89 N N/A 30.59 1036 7 11 N/A
4:52 am 04:52 Mostly Clear 35 1.7 33 0.6 93 93 N N/A 30.58 1036 7 11 N/A
5:52 am 05:52 Mostly Clear with Mist and Fog 34 1.1 32 undefined 92 92 N N/A 30.57 1035 6 10 N/A
6:29 am 06:29 Mostly Clear with Mist and Fog 35 1.7 33 0.6 93 93 N N/A 30.59 1036 5 8 N/A
6:40 am 06:40 Mostly Clear with Mist and Fog 36 2 32 undefined 87 87 N N/A 30.59 1036 5 8 N/A
6:47 am 06:47 Mostly Clear with Mist and Fog 34 1 32 undefined 93 93 N N/A 30.59 1036 5 8 N/A
6:52 am 06:52 Mostly Clear with Mist and Fog 34 1.1 33 0.6 97 97 N N/A 30.58 1035 5 8 N/A
7:06 am 07:06 Partly Cloudy with Mist and Fog 34 1.1 33 0.6 97 97 N N/A 30.59 1036 4 6 N/A
7:18 am 07:18 Partly Cloudy with Fog 34 1 34 1 100 100 N N/A 30.56 1035 5 8 N/A
7:23 am 07:23 Mostly Cloudy with Fog 34 1.1 33 0.6 97 97 N N/A 30.56 1035 5 8 N/A
7:38 am 07:38 Mostly Cloudy with Fog 34 1 34 1 100 100 N N/A 30.56 1035 1 2 N/A
7:52 am 07:52 Mostly Cloudy with Fog 34 1.1 33 0.6 97 97 N N/A 30.56 1035 1 2 N/A
7:56 am 07:56 Mostly Cloudy with Fog 34 1 34 1 100 100 N N/A 30.56 1035 5 8 N/A
8:04 am 08:04 Mostly Cloudy with Fog 34 1 34 1 100 100 N N/A 30.56 1035 1 2 N/A
8:21 am 08:21 Mostly Cloudy with Fog 34 1.1 34 1.1 100 100 N N/A 30.56 1035 0 0 N/A
8:34 am 08:34 Partly Cloudy with Mist and Fog 34 1 34 1 100 100 N N/A 30.56 1035 1 1 N/A
8:39 am 08:39 Partly Cloudy with Mist and Fog 35 1.7 34 1.1 96 96 N N/A 30.56 1035 1 1 N/A
8:52 am 08:52 Partly Cloudy with Mist and Fog 35 1.7 35 1.7 100 100 SSE 3 6 30.57 1035 1 2 N/A
9:09 am 09:09 Partly Cloudy with Mist and Fog 35 1.7 35 1.7 100 100 SSE 5 7 30.59 1036 1 2 N/A
9:29 am 09:29 Partly Cloudy with Mist and Fog 36 2.2 36 2.2 100 100 SE 3 6 30.56 1035 1 2 N/A
9:52 am 09:52 Partly Cloudy with Mist and Fog 38 3.3 38 3.3 100 100 S 3 6 30.55 1035 1 2 N/A
10:11 am 10:11 Partly Cloudy with Mist and Fog 40 4.4 39 3.9 97 97 N N/A 30.56 1035 3 5 N/A
10:52 am 10:52 Partly Cloudy 43 6.1 38 3.3 82 82 S 6 9 30.53 1034 9 14 N/A
11:52 am 11:52 Partly Cloudy 48 8.9 38 3.3 68 68 SSE 7 11 30.48 1032 10 16 N/A
12:52 pm 12:52 Partly Cloudy 49 9.4 38 3.3 66 66 S 10 17 30.46 1032 10 16 N/A
1:52 pm 13:52 Mostly Cloudy 51 10.6 38 3.3 61 61 SSE 10 17 30.44 1031 10 16 N/A
2:52 pm 14:52 Mostly Cloudy 51 10.6 36 2.2 56 56 SSE 8 13 30.41 1030 10 16 N/A
3:52 pm 15:52 Mostly Cloudy 50 10 37 2.8 61 61 S 7 11 30.40 1029 10 16 N/A
4:52 pm 16:52 Mostly Cloudy 49 9.4 34 1.1 56 56 SSW 8 13 30.38 1029 10 16 N/A
5:52 pm 17:52 Mostly Cloudy 46 7.8 40 4.4 79 79 S 6 9 30.35 1028 10 16 N/A
6:52 pm 18:52 Mostly Cloudy 48 8.9 35 1.7 61 61 WSW 3 6 30.36 1028 10 16 N/A
7:52 pm 19:52 Mostly Cloudy 44 6.7 37 2.8 76 76 N N/A 30.35 1028 10 16 N/A
8:52 pm 20:52 Mostly Cloudy 43 6.1 37 2.8 80 80 N N/A 30.35 1028 10 16 N/A
9:52 pm 21:52 Mostly Cloudy 42 5.6 38 3.3 85 85 N N/A 30.33 1027 9 14 N/A
10:52 pm 22:52 Cloudy 40 4.4 36 2.2 86 86 N N/A 30.31 1026 10 16 N/A
11:52 pm 23:52 Cloudy 41 5 36 2.2 82 82 N N/A 30.31 1026 10 16 N/A

Powered by AerisWeather